Dewpoint
40 41 42 34 25 27 24 24 26 36 39 48 50 49 51 52 52 47 57 60 62 64 65 66 66 66 66 67 66 66 66 65 65 65 65 64 64 64 64 63 64 64 64 64 63 63 63 62 62
33 33 36 31 21 21 22 24 29 46 47 47 51 53 52 52 54 55 56 59 61 62 63 63 64 64 64 64 64 64 64 63 63 62 62 61 61 60 60 59 59 59 59 59 58 58 58 57 57
37 34 28 20 22 20 22 23 44 44 44 45 49 52 52 53 55 56 57 58 61 61 61 62 62 62 61 61 61 61 60 60 60 59 59 58 57 57 57 56 56 55 55 55 55 55 54 54 54
30 26 24 15 14 16 22 22 43 42 43 47 48 48 51 55 56 57 58 59 59 60 60 61 61 60 60 59 59 59 58 58 58 57 56 56 55 54 54 54 54 53 53 52 52 52 52 52 52
27 26 18 16 15 16 17 16 40 40 41 47 48 47 52 56 57 57 58 58 57 59 59 59 60 59 58 57 57 57 56 55 54 54 53 53 52 52 51 51 51 50 50 50 50 50 49 49 50
24 21 16 13 13 14 14 16 28 35 45 47 48 48 52 56 56 56 58 56 57 57 58 58 58 58 57 56 54 54 53 52 51 50 49 49 49 50 48 47 48 47 48 48 46 47 46 47 49
21 20 17 17 16 14 13 18 30 37 40 46 49 47 52 54 55 55 55 55 55 55 56 56 56 56 55 54 53 51 49 48 48 48 48 47 48 47 44 44 46 45 45 45 44 44 44 45 47
18 20 18 17 14 12 13 25 31 35 38 45 47 46 48 52 53 52 52 53 54 54 54 54 53 52 51 51 50 49 49 48 46 45 44 45 44 46 44 42 43 43 42 42 41 41 44 44 45
18 15 16 16 13 12 16 25 34 37 37 43 44 47 50 51 50 48 48 49 50 54 53 52 51 50 48 48 48 48 47 48 47 47 47 46 40 38 41 41 41 41 40 41 41 43 43 43 43
18 15 16 17 15 14 13 14 31 33 38 46 47 49 49 48 48 47 46 47 49 50 52 52 52 48 47 48 48 46 46 44 44 44 43 44 41 42 45 43 42 42 40 40 40 42 41 41 41
25 17 17 16 16 12 11 11 13 32 32 42 46 47 48 47 47 46 46 47 47 49 49 49 50 49 48 47 48 47 45 45 43 43 43 44 41 40 41 38 39 38 40 39 39 40 39 40 40
26 22 17 17 17 11 10 11 11 25 32 43 47 47 47 46 46 46 45 46 46 48 48 49 47 47 46 46 45 42 44 43 42 42 42 42 40 40 39 38 39 37 39 38 39 38 39 39 39
26 23 18 17 16 14 11 11 11 12 32 45 48 46 46 46 45 45 44 44 46 45 47 47 47 45 43 43 40 40 42 42 42 41 41 41 39 39 40 38 38 37 38 38 38 38 38 38 39
26 27 24 19 15 18 12 11 12 13 41 46 46 45 45 45 45 44 43 42 43 44 45 46 46 44 44 42 42 40 40 41 40 41 40 39 39 38 39 38 37 37 38 38 37 38 38 38 38
29 26 23 20 15 16 16 11 11 13 37 44 44 43 43 44 45 44 42 41 42 43 45 45 45 45 43 42 41 40 41 41 40 40 39 38 38 37 37 37 36 36 38 38 38 38 38 37 38
29 28 25 25 21 16 13 11 14 14 14 40 42 42 42 43 44 43 41 40 41 43 44 44 45 44 42 41 39 38 37 39 40 39 38 37 36 36 36 36 35 36 38 38 37 37 36 36 37
29 26 26 26 26 21 11 10 14 15 15 19 39 40 40 41 43 41 40 40 42 43 43 43 43 42 42 41 39 38 36 36 37 36 37 36 35 35 36 35 35 35 37 37 37 36 36 35 35
26 25 25 25 25 23 19 14 12 15 15 17 28 35 37 39 41 40 39 40 42 43 43 43 43 43 41 39 37 37 35 35 35 35 35 34 34 34 33 34 34 35 36 35 35 34 34 34 33
28 26 24 25 25 24 22 23 15 15 17 19 21 30 35 37 41 39 39 39 42 42 41 42 42 42 40 38 36 34 33 34 34 33 33 33 32 34 33 33 34 34 35 34 34 33 33 32 32
31 29 28 28 27 26 25 24 24 22 19 19 21 23 32 37 39 38 38 38 40 40 40 42 42 41 39 39 37 36 33 34 34 32 31 31 30 31 32 32 33 33 33 33 33 32 31 31 31
31 30 29 28 28 27 26 24 23 25 24 22 22 23 31 37 39 38 38 39 39 39 41 41 41 40 40 38 36 32 30 31 32 30 29 29 27 28 30 31 31 32 32 32 32 32 31 28 28
29 30 30 29 27 25 25 22 23 23 24 25 24 23 27 37 38 38 38 39 39 40 41 41 41 40 38 33 31 28 27 28 30 29 28 27 27 26 27 28 28 30 31 30 31 32 31 29 26
32 31 28 28 26 27 27 25 25 26 27 27 28 27 27 36 38 37 38 38 39 40 39 40 39 35 34 33 32 30 30 26 27 28 28 27 26 26 26 27 26 26 27 27 28 29 28 28 27
31 31 29 32 33 29 27 26 25 26 28 28 28 28 32 36 37 37 37 38 39 39 39 37 34 32 31 34 33 30 25 25 25 26 27 27 27 26 26 26 26 25 26 26 27 26 26 26 27
30 27 25 27 31 29 31 29 28 27 28 28 26 29 29 35 37 37 37 37 39 39 38 35 32 31 31 32 32 28 25 24 24 26 24 25 26 25 25 25 24 24 25 26 25 24 26 25 26
30 28 26 24 25 25 27 26 26 27 28 27 28 33 35 36 36 37 37 37 39 38 37 33 31 31 30 31 30 28 27 26 26 24 26 26 26 26 26 25 25 24 25 26 24 23 26 24 26
30 27 29 28 29 28 28 26 27 30 30 30 26 30 34 35 36 37 38 38 39 39 36 33 31 30 30 31 29 26 26 25 26 26 26 27 27 26 25 25 25 24 24 24 23 23 23 24 24
32 36 33 33 27 25 30 29 25 27 31 30 31 29 31 36 36 37 38 38 40 40 37 33 31 30 31 29 27 27 27 27 27 27 25 26 27 26 25 25 25 24 24 23 22 23 23 23 23
25 29 35 35 34 28 25 25 29 29 30 30 30 32 32 36 37 38 38 38 40 40 37 32 30 30 28 28 26 26 26 27 28 27 27 26 26 25 25 25 25 24 24 24 22 22 23 23 22
30 33 32 30 30 32 31 27 33 32 29 32 31 37 37 37 39 38 38 39 40 39 36 32 31 31 29 28 28 26 27 28 27 26 26 26 25 26 25 25 25 24 24 24 22 21 23 23 22
Wind_Speed
6 7 5 1 2 5 21 20 27 14 5 11 14 21 21 12 4 3 4 2 15 14 13 14 21 20 18 18 18 17 17 17 16 17 17 16 17 17 18 18 17 15 14 13 13 13 12 12 12
4 4 4 4 5 9 20 23 20 11 11 15 20 14 16 7 7 9 7 7 13 14 14 15 20 19 18 18 18 17 17 17 17 17 17 17 18 18 18 17 17 15 14 13 13 13 14 13 13
3 6 3 5 7 22 17 9 5 10 9 12 8 16 6 6 11 14 11 11 11 16 16 17 20 18 18 18 18 17 17 18 17 18 17 17 18 17 16 15 15 14 13 12 12 12 13 14 15
2 3 5 7 23 32 30 32 12 12 4 14 20 13 7 7 19 12 18 17 18 17 17 18 19 18 19 18 18 17 18 17 17 17 17 17 17 16 16 15 14 14 13 12 13 13 13 13 14
2 4 8 11 25 29 31 22 15 13 12 16 11 6 6 7 26 25 18 19 20 18 16 15 18 19 18 19 18 17 17 16 16 16 16 16 16 16 16 15 14 14 13 12 13 14 14 14 13
4 3 8 20 27 26 25 18 7 10 22 15 15 10 6 22 22 20 20 19 17 18 15 15 19 19 19 17 18 18 17 16 15 15 15 16 16 14 15 14 13 13 14 13 15 15 16 15 15
17 13 19 24 28 30 25 12 8 12 12 12 26 8 15 20 17 16 18 20 20 18 15 14 14 16 18 17 17 17 16 15 14 12 13 12 12 12 13 14 12 12 14 14 16 17 17 18 19
15 14 23 23 26 30 35 8 7 9 6 22 19 12 13 26 24 20 19 18 18 18 17 16 17 16 14 12 15 16 15 15 13 10 6 5 10 8 7 9 8 10 14 12 16 16 17 17 19
19 18 22 29 24 23 15 5 10 6 17 13 5 13 26 33 28 21 18 14 14 17 18 18 17 16 15 14 13 15 15 14 8 9 13 11 7 6 3 5 4 11 15 16 17 18 17 18 16
17 21 23 26 25 21 6 14 2 5 20 18 24 28 33 34 29 25 22 20 17 18 18 17 17 18 17 12 13 13 14 13 11 11 7 8 8 8 9 7 8 14 15 14 15 16 17 16 15
19 23 26 26 24 5 4 8 12 8 10 18 31 31 30 28 26 25 23 23 22 19 14 17 20 19 17 14 14 12 14 14 12 12 10 8 10 8 9 10 9 11 13 12 14 13 15 16 16
21 27 24 25 22 5 5 4 11 6 10 27 38 41 33 30 26 26 26 25 25 23 20 17 17 13 16 13 14 16 16 14 13 10 12 10 9 9 8 9 11 12 11 12 12 13 14 15 16
17 17 17 20 14 10 8 7 11 12 8 32 33 30 30 29 27 23 22 22 24 22 22 21 15 14 13 15 16 16 16 17 14 11 11 11 9 8 6 10 12 11 11 11 12 13 14 15 15
18 23 22 19 17 12 13 9 10 9 21 31 33 29 28 27 27 22 24 23 24 24 24 22 17 13 14 16 15 16 16 16 15 12 10 11 8 7 8 11 11 11 11 10 13 14 15 14 14
18 19 19 22 16 19 16 14 19 14 22 31 30 30 28 26 25 23 27 29 24 22 24 22 18 13 16 17 14 14 13 15 15 13 11 10 8 8 10 12 10 10 9 14 15 14 14 14 13
16 16 19 18 21 27 21 23 19 20 18 28 30 30 30 31 31 24 31 30 29 26 24 21 15 16 16 15 14 12 14 16 15 13 12 10 9 10 10 10 11 12 12 15 14 15 15 14 13
14 15 20 26 25 23 25 26 24 20 22 22 31 32 31 29 27 24 30 29 28 28 26 22 19 18 15 14 14 12 15 16 15 14 12 11 10 11 11 11 12 12 13 15 12 13 13 14 15
12 19 19 21 26 19 19 28 29 27 30 19 30 28 29 31 29 32 32 31 30 27 25 22 18 15 16 16 14 12 15 14 14 13 13 12 11 12 13 11 12 12 12 13 11 13 13 12 16
25 28 29 23 16 17 18 22 22 27 20 17 28 28 29 33 24 33 31 30 30 28 26 25 22 18 17 16 16 15 16 14 14 13 13 12 11 11 11 11 11 10 13 13 13 10 13 14 17
27 27 26 19 17 14 15 26 20 16 17 26 31 27 30 28 32 33 32 27 31 29 27 25 22 20 17 15 14 12 15 12 13 13 13 12 11 11 10 11 11 11 12 12 12 13 11 10 15
33 30 27 24 17 19 15 36 18 14 20 20 25 30 29 36 37 33 32 32 31 31 29 28 26 24 19 14 17 16 16 15 10 12 12 11 11 11 12 11 11 12 12 12 10 11 12 13 14
40 24 30 23 15 20 9 34 22 15 23 22 25 28 27 31 33 35 32 33 34 31 28 27 25 21 15 20 21 22 13 15 10 15 13 12 11 11 11 12 12 12 11 11 11 11 11 9 11
40 11 15 12 16 16 24 14 34 6 19 18 16 21 25 33 37 36 34 33 31 31 29 29 26 22 18 17 19 16 14 16 16 17 16 14 12 10 11 11 11 12 11 10 11 11 12 11 9
17 22 11 5 2 14 29 12 34 15 22 24 27 29 32 42 39 33 30 32 30 26 26 26 27 22 17 14 19 21 25 21 19 16 15 15 13 11 11 11 11 11 10 8 9 11 10 11 9
18 5 9 11 11 27 6 13 35 3 16 19 15 13 27 33 34 34 34 31 30 29 25 25 26 22 18 16 17 21 22 20 19 17 18 17 14 11 10 11 10 10 9 9 11 14 12 11 11
21 15 16 12 16 21 18 17 21 5 15 10 10 14 26 29 30 34 35 32 29 29 27 26 28 25 21 16 16 17 18 18 16 17 16 16 15 13 10 12 12 11 11 12 14 15 12 14 14
27 21 20 16 12 5 8 7 9 10 14 18 13 15 17 23 25 28 26 28 27 30 29 28 27 25 23 19 19 19 18 19 19 19 18 17 16 12 13 13 14 13 14 15 16 15 14 15 13
6 5 3 1 8 13 9 8 10 12 11 10 9 5 16 20 20 22 26 28 26 29 26 27 28 28 22 20 18 16 18 18 17 18 18 17 14 16 16 15 14 15 15 14 14 15 14 15 12
6 2 5 1 4 4 4 5 12 10 2 10 2 8 4 24 24 29 30 27 28 29 29 28 27 27 26 23 19 19 18 17 18 19 18 16 16 16 16 15 14 14 13 13 14 15 13 13 12
11 1 5 7 3 7 5 12 19 25 19 16 12 9 6 1 21 29 29 26 32 28 27 29 27 28 25 22 20 19 18 17 20 19 17 16 16 16 17 15 14 14 12 13 15 13 10 10 13
Wind_Direction
291 255 171 258 261 224 254 257 250 317 127 57 58 85 104 67 67 161 170 165 120 117 106 104 97 95 97 95 91 88 87 88 90 86 83 79 75 69 63 57 54 51 45 36 27 24 20 17 14
313 306 197 281 225 259 277 252 260 113 100 95 82 103 53 74 85 130 134 171 140 126 106 97 97 95 92 93 94 95 97 96 93 89 84 78 73 68 64 59 54 48 42 34 25 18 11 5 3
305 209 218 201 235 240 251 288 143 101 100 93 103 54 75 107 123 148 157 166 128 112 105 102 98 107 107 104 101 98 95 91 89 88 84 80 75 69 66 61 56 48 41 33 24 17 9 2 358
234 298 277 251 258 263 244 261 180 115 76 87 109 73 77 92 148 144 148 131 109 102 102 100 105 106 105 104 104 100 96 91 90 88 85 83 80 73 66 59 51 43 35 29 22 13 7 360 354
261 264 246 253 260 262 273 275 183 150 151 111 96 94 77 54 114 137 142 123 117 111 107 110 113 112 109 106 101 97 93 91 88 86 85 81 76 70 63 55 47 38 30 25 20 10 2 356 352
240 192 254 273 275 278 283 248 182 160 110 109 86 95 81 130 130 154 135 125 119 115 119 118 116 115 113 109 108 105 101 97 93 88 84 80 77 75 65 52 45 34 26 22 17 11 3 360 354
239 251 260 262 274 290 292 235 161 126 126 129 139 108 143 142 142 117 116 116 119 119 115 107 108 113 114 116 112 107 104 99 96 95 89 90 87 77 67 53 49 34 25 21 13 5 0 358 353
242 239 259 268 273 290 305 179 149 122 67 109 132 152 166 155 143 123 115 115 129 133 133 128 123 120 113 115 110 108 102 96 93 90 97 97 66 94 76 67 59 33 21 21 9 2 355 11 6
248 255 257 257 265 269 349 5 47 91 98 61 40 151 139 140 133 129 131 134 138 145 151 149 143 137 131 129 130 121 112 107 89 61 72 100 76 53 120 99 58 41 26 23 12 6 23 6 356
234 243 249 256 262 278 338 349 9 129 96 87 83 100 130 137 144 150 156 161 159 154 162 160 153 148 150 154 153 142 114 101 80 60 66 71 73 48 58 57 52 40 28 21 10 6 11 357 345
266 246 244 253 259 268 326 330 325 184 164 155 146 143 145 148 156 163 166 167 168 163 153 150 153 160 167 160 172 162 120 108 89 64 50 71 67 45 51 44 46 42 23 18 5 11 4 351 345
267 266 252 252 267 228 239 303 311 239 218 159 156 154 152 161 170 175 175 171 165 162 163 158 160 166 167 152 153 136 130 114 97 78 57 68 67 43 46 43 52 39 19 15 10 13 359 354 346
292 293 284 264 266 275 201 230 267 296 106 140 139 151 160 166 176 182 171 162 157 160 153 155 159 153 149 138 130 121 125 115 111 87 66 65 62 40 40 57 55 32 11 17 21 13 6 356 349
276 292 293 296 298 294 257 219 242 255 128 137 148 161 168 175 177 174 165 159 159 151 152 150 153 154 142 131 131 132 128 122 108 99 82 68 61 41 63 69 47 24 6 26 24 18 4 355 344
295 295 295 287 277 273 273 238 225 235 142 151 160 167 172 179 180 179 164 157 152 149 145 150 153 155 145 141 137 142 136 124 115 107 93 77 59 39 75 69 43 15 19 41 30 14 2 351 344
298 291 274 270 259 252 244 256 239 218 214 171 171 171 174 179 181 175 156 155 150 146 146 144 145 148 145 143 144 133 128 123 123 112 105 82 58 46 80 69 39 20 46 43 29 13 1 351 351
246 249 257 268 254 246 222 241 240 216 220 199 180 176 176 178 181 161 155 151 149 145 145 148 150 153 155 142 138 131 124 115 117 108 102 86 64 52 77 64 42 35 47 42 29 13 6 3 354
248 244 245 244 266 250 242 247 226 214 220 229 184 175 173 177 181 159 154 151 146 147 148 146 150 152 141 132 130 121 115 107 101 98 91 77 59 57 59 56 48 42 55 41 35 26 12 11 348
249 258 265 268 270 294 294 296 235 211 205 187 177 178 179 182 170 154 149 149 146 148 146 148 152 155 149 152 156 146 138 122 109 101 95 86 70 76 67 63 55 42 63 46 39 19 17 18 2
260 265 269 284 297 290 312 299 278 252 213 192 191 188 183 172 155 156 152 147 150 150 148 148 151 157 168 172 171 160 146 133 129 116 104 96 82 72 69 62 53 50 61 46 46 35 31 23 19
257 258 267 271 297 286 307 290 284 269 251 210 197 197 180 171 163 158 156 150 148 152 152 151 155 165 180 168 139 125 123 127 123 120 110 99 90 76 70 64 59 55 61 47 42 36 42 38 24
254 248 248 255 276 278 208 273 268 267 256 230 212 202 184 175 163 159 154 153 155 156 150 151 159 173 175 151 138 147 153 158 149 141 124 113 100 86 76 73 64 62 61 44 41 39 45 42 37
260 258 246 251 262 290 264 266 280 224 287 280 279 251 187 166 165 167 162 155 155 153 152 153 159 154 155 145 156 158 157 134 135 129 132 123 106 99 86 82 78 67 63 50 52 46 44 36 45
283 252 248 246 60 257 249 215 272 251 257 252 255 261 183 177 169 158 150 148 153 152 151 154 146 148 152 157 156 151 145 143 139 145 140 139 122 102 95 83 80 69 58 48 60 50 49 43 45
262 242 227 225 207 240 176 211 233 240 248 250 254 236 186 165 156 150 152 155 156 157 147 147 144 145 138 147 144 148 148 147 152 153 149 138 124 107 101 93 78 68 50 43 77 54 39 53 59
225 216 210 214 225 253 241 237 245 254 251 133 103 114 129 141 152 159 162 161 155 154 150 146 146 147 145 142 139 129 128 137 138 134 131 126 124 116 113 100 85 73 53 53 74 57 46 53 56
236 225 235 254 281 293 256 269 349 75 76 57 49 121 149 156 160 159 161 161 154 157 156 151 146 142 147 151 145 141 136 130 130 121 119 122 125 123 102 99 88 73 55 72 74 62 56 55 55
232 290 298 96 219 233 262 268 223 55 84 66 27 14 143 160 153 156 161 165 159 155 153 145 146 147 147 147 148 145 139 137 131 125 126 120 129 119 106 95 88 79 65 73 75 65 59 59 51
331 360 86 218 216 231 209 259 124 74 103 124 47 278 149 148 157 168 173 168 154 155 154 147 145 143 148 152 151 144 143 138 127 129 132 131 127 123 114 104 93 90 81 73 86 73 70 69 64
33 120 230 232 210 200 203 254 31 16 43 55 16 343 332 150 175 170 163 157 159 157 149 147 149 148 150 151 150 146 141 135 132 132 134 132 129 124 121 116 109 101 93 86 91 86 81 85 79